Location: Radomski Observatory
(40.2854°N, 79.5145°W)
Time: 20:29:14
(UTC-04:00)

Amateur Radio Satellites - All Passes

Search period start: 20 October 2014 19:59
Search period end: 21 October 2014 19:59
Location: Radomski Observatory, 40.2854°N, 79.5145°W

Satellite Date Start Highest point End Downlink Frequencies (MHz)
Time Altitude Azimuth
JAS-2 20 Oct 20:02:33 20:03:31 10° 277° (W) 20:04:31 435.800 - 435.900 CW/SSB, 435.910 FM
SO-67 20 Oct 20:36:52 20:38:54 15° 267° (W) 20:40:56 435.3500 MHz FM
STRAND 1 20 Oct 21:12:15 21:16:41 30° 293° (WNW) 21:21:06 ?
Oscar 11 20 Oct 21:14:37 21:17:41 19° 66° (ENE) 21:20:45 145.825 FM, Beacon 2401.500 USB
ISS 20 Oct 21:19:21 21:22:42 68° 35° (NE) 21:26:01 145.800 FM
HO-68 20 Oct 21:21:00 21:28:09 84° 73° (ENE) 21:35:22 435.675 MHz FM
KITSAT 1 20 Oct 21:24:35 21:31:35 31° 43° (NE) 21:38:31 435.175 FM
AO-40 20 Oct 21:48:53 23:43:17 28° 217° (SW) 03:32:41 Beacon 2401.320
ZACube-1 20 Oct 21:50:21 21:53:48 21° 67° (ENE) 21:57:15 437.345 MHz
RS-15 20 Oct 21:53:05 22:00:58 23° 101° (ESE) 22:08:44 29.354 - 29.394 USB, Beacon 29.352 USB
UKube-1 20 Oct 22:03:23 22:07:43 78° 75° (ENE) 22:12:05 145.840 MHz, 145.915 MHz
SO-50 20 Oct 22:34:02 22:38:14 29° 48° (NE) 22:42:28 436.795 FM
FUNcube-1 20 Oct 22:34:56 22:39:28 61° 74° (ENE) 22:43:59 145.950 - 145.970 MHz USB
Oscar 11 20 Oct 22:49:34 22:53:36 37° 262° (W) 22:57:38 145.825 FM, Beacon 2401.500 USB
ISS 20 Oct 22:57:24 22:59:00 13° 231° (SW) 23:00:36 145.800 FM
HO-68 20 Oct 23:12:20 23:16:38 17° 270° (W) 23:20:58 435.675 MHz FM
KITSAT 1 20 Oct 23:19:36 23:27:37 70° 245° (WSW) 23:35:36 435.175 FM
ZACube-1 20 Oct 23:25:39 23:29:56 38° 262° (W) 23:34:13 437.345 MHz
RS-15 21 Oct 00:00:49 00:11:52 86° 302° (WNW) 00:22:52 29.354 - 29.394 USB, Beacon 29.352 USB
MaSat-1 21 Oct 00:10:24 00:12:36 14° 105° (ESE) 00:14:43 437.345 MHz
FUNcube-1 21 Oct 00:14:09 00:16:12 13° 270° (W) 00:18:15 145.950 - 145.970 MHz USB
SO-50 21 Oct 00:14:23 00:18:53 38° 245° (WSW) 00:23:23 436.795 FM
UOSAT-12 21 Oct 00:22:23 00:26:33 30° 48° (NE) 00:30:40 437.025 FM, 437.400 FM
KITSAT 1 21 Oct 01:19:08 01:21:31 12° 262° (W) 01:23:55 435.175 FM
MaSat-1 21 Oct 01:43:54 01:48:05 50° 298° (WNW) 01:51:54 437.345 MHz
Oscar 19 21 Oct 01:44:25 01:47:30 16° 91° (E) 01:50:35 437.125 CW, 437.150 USB
UOSAT-12 21 Oct 02:02:29 02:06:42 33° 246° (WSW) 02:10:51 437.025 FM, 437.400 FM
RS-15 21 Oct 02:16:50 02:25:59 29° 328° (NNW) 02:35:14 29.354 - 29.394 USB, Beacon 29.352 USB
JAS-1B 21 Oct 02:27:36 02:33:43 40° 99° (E) 02:40:50 435.800 - 435.900 CW/SSB
Oscar 16 21 Oct 02:28:01 02:32:55 44° 99° (E) 02:37:46 437.025 USB, Beacon 2401.1428
Uribyol 2 21 Oct 02:40:12 02:44:23 24° 94° (E) 02:48:32 436.500 FM
Gurwin Techsat 1B 21 Oct 02:41:17 02:42:58 11° 89° (E) 02:44:38 435.225 FM
ITAMSAT 1 21 Oct 02:45:01 02:49:18 25° 95° (E) 02:53:33 435.822 SSB
TMSAT-1 21 Oct 02:55:25 02:57:05 11° 89° (E) 02:58:44 436.925 FM
AO-Echo 21 Oct 02:58:03 03:03:08 45° 99° (E) 03:08:13 ?
Oscar 19 21 Oct 03:22:11 03:27:13 58° 287° (WNW) 03:32:13 437.125 CW, 437.150 USB
AO-27 21 Oct 03:28:48 03:34:02 67° 102° (ESE) 03:39:13 436.795 MHz FM
AO-7 21 Oct 03:46:17 03:46:36 10° 86° (E) 03:46:55 29.400 - 29.500 MHz
Sapphire 21 Oct 04:03:37 04:06:19 14° 103° (ESE) 04:09:02 437.095 MHz 1200 baud AX-25 AFSK
Oscar 16 21 Oct 04:08:03 04:11:58 22° 295° (WNW) 04:15:51 437.025 USB, Beacon 2401.1428
Gurwin Techsat 1B 21 Oct 04:18:12 04:23:33 83° 285° (WNW) 04:28:51 435.225 FM
JAS-1B 21 Oct 04:18:32 04:24:16 36° 292° (WNW) 04:30:55 435.800 - 435.900 CW/SSB
Uribyol 2 21 Oct 04:19:07 04:23:58 40° 291° (WNW) 04:28:47 436.500 FM
ITAMSAT 1 21 Oct 04:24:03 04:28:52 39° 291° (WNW) 04:33:40 435.822 SSB
PCSat 21 Oct 04:24:47 04:29:05 25° 107° (ESE) 04:33:25 145.825 MHz
TMSAT-1 21 Oct 04:32:17 04:37:37 83° 285° (WNW) 04:42:54 436.925 FM
RS-15 21 Oct 04:36:20 04:43:32 19° 4° (N) 04:50:50 29.354 - 29.394 USB, Beacon 29.352 USB
AO-Echo 21 Oct 04:37:28 04:41:35 24° 295° (WNW) 04:45:42 ?
Uosat F 21 Oct 04:40:28 04:43:41 17° 92° (E) 04:46:53 435.120 FM
AO-27 21 Oct 05:09:52 05:12:58 16° 299° (WNW) 05:16:03 436.795 MHz FM
OPAL 21 Oct 05:10:31 05:15:34 55° 70° (ENE) 05:20:34 ?
JAS-2 21 Oct 05:21:54 05:26:55 18° 88° (E) 05:31:56 435.800 - 435.900 CW/SSB, 435.910 FM
AO-7 21 Oct 05:32:35 05:40:51 65° 104° (ESE) 05:49:06 29.400 - 29.500 MHz
Sapphire 21 Oct 05:43:39 05:49:02 75° 300° (WNW) 05:54:29 437.095 MHz 1200 baud AX-25 AFSK
Gurwin Techsat 1B 21 Oct 06:01:14 06:02:38 11° 302° (WNW) 06:04:03 435.225 FM
PCSat 21 Oct 06:07:02 06:12:12 45° 305° (NW) 06:17:25 145.825 MHz
TMSAT-1 21 Oct 06:15:17 06:16:39 11° 302° (WNW) 06:18:02 436.925 FM
Uosat F 21 Oct 06:17:51 06:22:47 55° 288° (WNW) 06:27:41 435.120 FM
STRAND 1 21 Oct 06:48:19 06:53:10 45° 70° (ENE) 06:58:04 ?
RS-15 21 Oct 06:50:34 07:00:34 36° 38° (NE) 07:10:50 29.354 - 29.394 USB, Beacon 29.352 USB
OPAL 21 Oct 06:51:18 06:54:43 18° 265° (W) 06:58:08 ?
Hamsat 21 Oct 07:00:58 07:05:09 65° 101° (E) 07:09:19 145.90 MHz
JAS-2 21 Oct 07:04:55 07:12:39 89° 285° (WNW) 07:20:31 435.800 - 435.900 CW/SSB, 435.910 FM
AO-7 21 Oct 07:26:12 07:33:03 30° 303° (WNW) 07:39:55 29.400 - 29.500 MHz
Sapphire 21 Oct 07:30:44 07:33:25 14° 320° (NW) 07:36:07 437.095 MHz 1200 baud AX-25 AFSK
SO-67 21 Oct 07:59:08 08:02:20 34° 98° (E) 08:05:30 435.3500 MHz FM
Saudisat 1A 21 Oct 08:04:56 08:07:38 16° 110° (ESE) 08:10:21 436.775 MHz
STRAND 1 21 Oct 08:28:44 08:32:33 21° 267° (W) 08:36:24 ?
Hamsat 21 Oct 08:39:23 08:40:32 11° 297° (WNW) 08:41:42 145.90 MHz
HO-68 21 Oct 08:51:31 08:55:29 15° 90° (E) 08:59:24 435.675 MHz FM
JAS-2 21 Oct 08:51:35 08:56:42 20° 302° (WNW) 09:01:55 435.800 - 435.900 CW/SSB, 435.910 FM
RS-15 21 Oct 09:02:51 09:14:01 77° 243° (WSW) 09:25:40 29.354 - 29.394 USB, Beacon 29.352 USB
SO-67 21 Oct 09:33:24 09:34:59 13° 293° (WNW) 09:36:33 435.3500 MHz FM
Saudisat 1A 21 Oct 09:42:30 09:46:47 51° 306° (NW) 09:51:05 436.775 MHz
UKube-1 21 Oct 09:53:46 09:55:58 14° 92° (E) 09:58:09 145.840 MHz, 145.915 MHz
MaSat-1 21 Oct 09:56:55 09:58:16 13° 53° (NE) 09:59:34 437.345 MHz
FUNcube-1 21 Oct 10:27:09 10:28:31 11° 90° (E) 10:29:53 145.950 - 145.970 MHz USB
HO-68 21 Oct 10:36:47 10:44:02 89° 287° (WNW) 10:51:13 435.675 MHz FM
Oscar 11 21 Oct 10:37:27 10:41:29 38° 98° (E) 10:45:30 145.825 FM, Beacon 2401.500 USB
PANSAT 21 Oct 11:08:05 11:10:05 14° 177° (S) 11:12:04 not established
ZACube-1 21 Oct 11:15:25 11:19:30 42° 98° (E) 11:23:28 437.345 MHz
RS-15 21 Oct 11:18:16 11:24:31 17° 262° (W) 11:30:56 29.354 - 29.394 USB, Beacon 29.352 USB
UKube-1 21 Oct 11:28:11 11:32:27 52° 287° (WNW) 11:36:40 145.840 MHz, 145.915 MHz
MaSat-1 21 Oct 11:32:12 11:33:57 16° 254° (WSW) 11:35:38 437.345 MHz
KITSAT 1 21 Oct 11:55:19 12:00:15 18° 101° (E) 12:05:11 435.175 FM
FUNcube-1 21 Oct 12:01:05 12:05:18 57° 286° (WNW) 12:09:25 145.950 - 145.970 MHz USB
Oscar 11 21 Oct 12:14:24 12:17:23 19° 294° (WNW) 12:20:20 145.825 FM, Beacon 2401.500 USB
HO-68 21 Oct 12:26:15 12:30:45 18° 305° (NW) 12:35:15 435.675 MHz FM
PANSAT 21 Oct 12:48:05 12:49:30 12° 190° (S) 12:50:54 not established
Sapphire 21 Oct 12:50:27 12:53:16 14° 41° (NE) 12:56:04 437.095 MHz 1200 baud AX-25 AFSK
ZACube-1 21 Oct 12:52:49 12:55:32 17° 295° (WNW) 12:58:14 437.345 MHz
Oscar 19 21 Oct 13:00:35 13:04:37 24° 65° (ENE) 13:08:38 437.125 CW, 437.150 USB
AO-27 21 Oct 13:10:44 13:12:53 13° 59° (ENE) 13:15:03 436.795 MHz FM
PCSat 21 Oct 13:12:39 13:16:44 21° 46° (NE) 13:20:48 145.825 MHz
JAS-1B 21 Oct 13:14:35 13:19:38 28° 66° (ENE) 13:24:24 435.800 - 435.900 CW/SSB
Oscar 16 21 Oct 13:44:22 13:49:27 61° 73° (ENE) 13:54:33 437.025 USB, Beacon 2401.1428
KITSAT 1 21 Oct 13:46:27 13:54:32 90° 299° (WNW) 14:02:40 435.175 FM
Uribyol 2 21 Oct 13:57:26 14:02:07 35° 68° (ENE) 14:06:51 436.500 FM
Gurwin Techsat 1B 21 Oct 14:01:00 14:04:40 19° 63° (ENE) 14:08:20 435.225 FM
ISS 21 Oct 14:01:24 14:04:18 28° 134° (SE) 14:07:14 145.800 FM
ITAMSAT 1 21 Oct 14:02:25 14:07:08 37° 69° (ENE) 14:11:54 435.822 SSB
AO-Echo 21 Oct 14:10:36 14:15:17 52° 72° (ENE) 14:20:08 ?
TMSAT-1 21 Oct 14:14:48 14:18:26 19° 63° (ENE) 14:22:04 436.925 FM
SO-50 21 Oct 14:28:20 14:32:48 81° 121° (ESE) 14:37:26 436.795 FM
Sapphire 21 Oct 14:32:09 14:37:37 78° 61° (ENE) 14:43:02 437.095 MHz 1200 baud AX-25 AFSK
Oscar 19 21 Oct 14:38:48 14:43:41 42° 261° (W) 14:48:34 437.125 CW, 437.150 USB
AO-7 21 Oct 14:42:13 14:47:27 19° 50° (NE) 14:52:40 29.400 - 29.500 MHz
AO-27 21 Oct 14:46:26 14:51:38 86° 256° (WSW) 14:56:54 436.795 MHz FM
PCSat 21 Oct 14:55:14 15:00:36 63° 245° (WSW) 15:05:56 145.825 MHz
JAS-1B 21 Oct 15:04:31 15:10:13 38° 261° (W) 15:15:31 435.800 - 435.900 CW/SSB
Oscar 16 21 Oct 15:26:12 15:29:12 15° 269° (W) 15:32:12 437.025 USB, Beacon 2401.1428
Uribyol 2 21 Oct 15:37:11 15:41:36 28° 264° (W) 15:46:04 436.500 FM
ISS 21 Oct 15:37:51 15:40:57 34° 331° (NNW) 15:44:03 145.800 FM
Gurwin Techsat 1B 21 Oct 15:38:59 15:44:10 56° 260° (W) 15:49:24 435.225 FM
Oscar 10/S400 21 Oct 15:40:23 15:58:06 50° 159° (SSE) 16:32:37 145.825 - 145.975 CW/USB, Beacon 145.810 USB
ITAMSAT 1 21 Oct 15:42:20 15:46:40 27° 265° (W) 15:51:03 435.822 SSB
KITSAT 1 21 Oct 15:44:42 15:51:03 25° 321° (NW) 15:57:25 435.175 FM
AO-Echo 21 Oct 15:51:23 15:54:24 16° 269° (W) 15:57:29 ?
TMSAT-1 21 Oct 15:52:42 15:57:53 56° 260° (W) 16:03:07 436.925 FM
Uosat F 21 Oct 15:53:09 15:57:02 23° 65° (ENE) 16:00:57 435.120 FM
SO-50 21 Oct 16:11:19 16:13:59 15° 320° (NW) 16:16:42 436.795 FM
UOSAT-12 21 Oct 16:12:20 16:16:57 83° 121° (ESE) 16:21:41 437.025 FM, 437.400 FM
Sapphire 21 Oct 16:17:43 16:20:19 14° 257° (WSW) 16:22:54 437.095 MHz 1200 baud AX-25 AFSK
AO-7 21 Oct 16:30:43 16:38:59 81° 70° (ENE) 16:47:18 29.400 - 29.500 MHz
Saudisat 1A 21 Oct 16:31:14 16:33:49 15° 41° (NE) 16:36:24 436.775 MHz
ISS 21 Oct 17:16:43 17:18:25 13° 351° (N) 17:20:07 145.800 FM
JAS-2 21 Oct 17:17:16 17:22:31 37° 66° (ENE) 17:28:24 435.800 - 435.900 CW/SSB, 435.910 FM
OPAL 21 Oct 17:22:50 17:25:17 14° 93° (E) 17:27:44 ?
Uosat F 21 Oct 17:30:51 17:35:33 41° 261° (W) 17:40:19 435.120 FM
Hamsat 21 Oct 17:53:41 17:57:41 42° 73° (ENE) 18:01:39 145.90 MHz
UOSAT-12 21 Oct 17:54:55 17:57:44 16° 320° (NW) 18:00:34 437.025 FM, 437.400 FM
Saudisat 1A 21 Oct 18:09:29 18:13:55 76° 240° (WSW) 18:18:19 436.775 MHz
AO-7 21 Oct 18:26:51 18:32:35 20° 268° (W) 18:38:22 29.400 - 29.500 MHz
SO-67 21 Oct 18:33:10 18:34:25 12° 66° (ENE) 18:35:41 435.3500 MHz FM
ISS 21 Oct 18:54:23 18:56:13 14° 11° (NNE) 18:58:04 145.800 FM
OPAL 21 Oct 18:59:40 19:04:37 65° 289° (WNW) 19:09:29 ?
STRAND 1 21 Oct 19:00:44 19:03:48 16° 91° (E) 19:06:50 ?
JAS-2 21 Oct 19:02:32 19:07:37 33° 266° (W) 19:13:19 435.800 - 435.900 CW/SSB, 435.910 FM
HO-68 21 Oct 19:22:09 19:24:58 13° 51° (NE) 19:27:47 435.675 MHz FM
Hamsat 21 Oct 19:31:19 19:33:49 15° 268° (W) 19:36:19 145.90 MHz
KITSAT 1 21 Oct 19:46:20 19:50:06 14° 23° (NNE) 19:53:50 435.175 FM
